TimeEST,TemperatureF,Dew PointF,Humidity,Sea Level PressureIn,VisibilityMPH,Wind Direction,Wind SpeedMPH,Gust SpeedMPH,PrecipitationIn,Events,Conditions,WindDirDegrees,DateUTC
12:15 AM,31.3,16.5,54,30.31,10.0,NE,5.8,-,N/A,,Clear,40,2014-03-06 05:15:00
12:35 AM,31.8,15.4,51,30.31,10.0,NE,5.8,-,N/A,,Clear,40,2014-03-06 05:35:00
12:55 AM,31.5,14.7,50,30.32,10.0,NE,6.9,-,N/A,,Clear,40,2014-03-06 05:55:00
1:15 AM,32.0,14.0,48,30.32,10.0,NNE,6.9,-,N/A,,Clear,30,2014-03-06 06:15:00
1:35 AM,32.0,13.3,46,30.31,10.0,NE,8.1,-,N/A,,Clear,40,2014-03-06 06:35:00
1:55 AM,32.0,13.1,46,30.30,10.0,NE,8.1,-,N/A,,Clear,40,2014-03-06 06:55:00
2:15 AM,32.0,12.7,45,30.30,10.0,NE,8.1,-,N/A,,Clear,40,2014-03-06 07:15:00
2:35 AM,32.0,12.4,44,30.29,10.0,NE,10.4,16.1,N/A,,Clear,40,2014-03-06 07:35:00
2:55 AM,32.0,12.4,44,30.29,10.0,NE,10.4,-,N/A,,Clear,40,2014-03-06 07:55:00
3:15 AM,32.0,11.7,43,30.30,10.0,NE,9.2,-,N/A,,Clear,40,2014-03-06 08:15:00
3:35 AM,31.6,12.2,45,30.30,10.0,NE,11.5,-,N/A,,Clear,50,2014-03-06 08:35:00
3:55 AM,31.5,13.1,47,30.31,10.0,NNE,8.1,-,N/A,,Clear,30,2014-03-06 08:55:00
4:15 AM,31.5,14.0,49,30.32,10.0,NE,8.1,-,N/A,,Clear,40,2014-03-06 09:15:00
4:35 AM,31.1,14.7,51,30.33,10.0,NNE,10.4,-,N/A,,Clear,30,2014-03-06 09:35:00
4:55 AM,31.1,15.6,53,30.33,10.0,NE,10.4,-,N/A,,Clear,40,2014-03-06 09:55:00
5:15 AM,30.9,16.7,56,30.34,10.0,NNE,11.5,17.3,N/A,,Clear,30,2014-03-06 10:15:00
5:35 AM,30.7,17.6,58,30.35,10.0,NE,10.4,16.1,N/A,,Clear,40,2014-03-06 10:35:00
5:55 AM,30.6,17.6,59,30.36,10.0,NE,8.1,16.1,N/A,,Clear,40,2014-03-06 10:55:00
6:15 AM,30.2,17.6,60,30.36,10.0,NNE,9.2,-,N/A,,Clear,30,2014-03-06 11:15:00
6:35 AM,30.0,17.4,59,30.35,10.0,NNE,11.5,-,N/A,,Clear,30,2014-03-06 11:35:00
6:55 AM,29.7,17.2,60,30.37,10.0,NNE,9.2,17.3,N/A,,Clear,20,2014-03-06 11:55:00
7:15 AM,30.2,17.2,59,30.38,10.0,NNE,9.2,-,N/A,,Clear,20,2014-03-06 12:15:00
7:35 AM,31.1,17.1,56,30.39,10.0,NNE,10.4,16.1,N/A,,Clear,30,2014-03-06 12:35:00
7:55 AM,31.5,17.4,56,30.39,10.0,NNE,12.7,16.1,N/A,,Clear,30,2014-03-06 12:55:00
8:15 AM,32.0,17.8,56,30.39,10.0,NE,12.7,17.3,N/A,,Clear,40,2014-03-06 13:15:00
8:35 AM,32.4,18.3,56,30.40,10.0,NE,11.5,17.3,N/A,,Clear,40,2014-03-06 13:35:00
8:55 AM,33.4,18.7,55,30.41,10.0,NE,9.2,19.6,N/A,,Clear,40,2014-03-06 13:55:00
9:15 AM,33.4,18.3,54,30.41,10.0,NNE,11.5,20.7,N/A,,Clear,20,2014-03-06 14:15:00
9:35 AM,34.5,18.7,52,30.40,10.0,NNE,12.7,18.4,N/A,,Clear,20,2014-03-06 14:35:00
9:55 AM,34.9,18.7,52,30.40,10.0,NNE,11.5,19.6,N/A,,Clear,20,2014-03-06 14:55:00
10:15 AM,36.3,18.7,49,30.38,10.0,NNE,15.0,21.9,N/A,,Clear,20,2014-03-06 15:15:00
10:35 AM,36.7,18.7,48,30.38,10.0,NNE,12.7,20.7,N/A,,Clear,20,2014-03-06 15:35:00
10:55 AM,37.6,19.0,47,30.38,10.0,NE,13.8,20.7,N/A,,Clear,40,2014-03-06 15:55:00
11:15 AM,37.6,19.4,48,30.37,10.0,NE,13.8,21.9,N/A,,Clear,50,2014-03-06 16:15:00
11:35 AM,37.6,19.8,49,30.37,10.0,ENE,12.7,18.4,N/A,,Clear,60,2014-03-06 16:35:00
11:55 AM,37.6,20.5,50,30.36,10.0,NE,12.7,18.4,N/A,,Scattered Clouds,40,2014-03-06 16:55:00
12:15 PM,37.6,21.2,52,30.36,10.0,NNE,15.0,19.6,N/A,,Clear,20,2014-03-06 17:15:00
12:35 PM,37.9,21.9,53,30.35,10.0,NNE,12.7,20.7,N/A,,Scattered Clouds,20,2014-03-06 17:35:00
12:55 PM,38.5,22.8,53,30.34,10.0,NNE,12.7,19.6,N/A,,Scattered Clouds,30,2014-03-06 17:55:00
1:15 PM,37.8,23.0,55,30.34,10.0,NE,13.8,21.9,N/A,,Scattered Clouds,40,2014-03-06 18:15:00
1:35 PM,37.8,23.0,55,30.33,10.0,NNE,11.5,18.4,N/A,,Mostly Cloudy,20,2014-03-06 18:35:00
1:55 PM,37.8,23.0,55,30.32,10.0,NE,10.4,19.6,N/A,,Overcast,40,2014-03-06 18:55:00
2:15 PM,37.9,23.2,55,30.32,10.0,NE,11.5,-,N/A,,Overcast,50,2014-03-06 19:15:00
2:35 PM,37.4,23.4,57,30.31,10.0,NE,15.0,24.2,N/A,,Overcast,40,2014-03-06 19:35:00
2:55 PM,37.6,23.7,57,30.28,10.0,NE,13.8,-,N/A,,Overcast,50,2014-03-06 19:55:00
3:15 PM,37.4,23.5,57,30.28,10.0,NNE,15.0,20.7,N/A,,Overcast,30,2014-03-06 20:15:00
3:35 PM,36.7,23.7,59,30.28,10.0,NE,10.4,21.9,N/A,,Overcast,40,2014-03-06 20:35:00
3:55 PM,36.1,23.5,60,30.28,10.0,NNE,11.5,19.6,N/A,,Overcast,20,2014-03-06 20:55:00
4:15 PM,36.0,23.9,62,30.29,10.0,NE,12.7,-,N/A,,Overcast,40,2014-03-06 21:15:00
4:35 PM,35.6,25.0,65,30.29,10.0,NE,11.5,23.0,N/A,,Overcast,50,2014-03-06 21:35:00
4:55 PM,35.6,25.0,65,30.29,10.0,NE,8.1,-,N/A,,Overcast,40,2014-03-06 21:55:00
5:15 PM,35.1,24.8,66,30.29,10.0,NE,12.7,19.6,N/A,,Overcast,50,2014-03-06 22:15:00
5:35 PM,34.2,26.2,73,30.29,7.0,NE,16.1,19.6,N/A,Rain,Light Rain,50,2014-03-06 22:35:00
5:55 PM,33.4,26.4,75,30.29,10.0,NE,15.0,21.9,N/A,Rain,Light Rain,40,2014-03-06 22:55:00
6:15 PM,32.9,27.5,81,30.29,5.0,NE,13.8,18.4,N/A,,Overcast,40,2014-03-06 23:15:00
6:35 PM,32.4,27.9,83,30.28,4.0,NNE,13.8,18.4,0.01,,Overcast,30,2014-03-06 23:35:00
6:55 PM,32.0,28.0,85,30.28,5.0,NE,11.5,18.4,0.01,Snow,Light Snow,40,2014-03-06 23:55:00
7:15 PM,32.0,28.2,86,30.27,4.0,NNE,10.4,19.6,0.01,,Overcast,30,2014-03-07 00:15:00
7:35 PM,31.6,28.6,88,30.26,4.0,NNE,11.5,18.4,0.02,Snow,Light Snow,20,2014-03-07 00:35:00
7:55 PM,31.3,28.9,91,30.25,5.0,NNE,13.8,20.7,0.03,,Overcast,30,2014-03-07 00:55:00
8:20 PM,31.3,29.1,92,30.24,5.0,NNE,15.0,20.7,N/A,,Overcast,30,2014-03-07 01:20:00
8:35 PM,31.1,29.1,92,30.25,7.0,NNE,11.5,19.6,N/A,,Overcast,20,2014-03-07 01:35:00
8:55 PM,31.5,29.3,92,30.24,5.0,NNE,11.5,18.4,N/A,,Overcast,20,2014-03-07 01:55:00
9:15 PM,31.5,29.3,92,30.24,5.0,NNE,8.1,-,0.01,,Overcast,30,2014-03-07 02:15:00
9:35 PM,31.5,29.3,92,30.24,5.0,NNE,10.4,-,0.02,,Overcast,20,2014-03-07 02:35:00
9:55 PM,31.5,29.3,92,30.24,5.0,NNE,9.2,-,0.04,,Overcast,30,2014-03-07 02:55:00
10:15 PM,31.5,29.3,92,30.23,5.0,NNE,9.2,16.1,0.01,,Overcast,30,2014-03-07 03:15:00
10:35 PM,31.5,29.3,92,30.23,5.0,NE,10.4,-,0.02,,Overcast,40,2014-03-07 03:35:00
10:55 PM,31.1,29.1,92,30.22,7.0,NNE,9.2,16.1,0.02,,Overcast,20,2014-03-07 03:55:00
11:15 PM,31.1,28.9,92,30.21,7.0,NNE,9.2,-,0.01,,Overcast,20,2014-03-07 04:15:00
11:35 PM,31.1,29.1,92,30.19,5.0,NNE,9.2,16.1,0.03,Snow,Light Snow,20,2014-03-07 04:35:00
11:55 PM,31.1,29.1,92,30.18,5.0,NNE,9.2,-,0.05,Snow,Light Snow,20,2014-03-07 04:55:00